Date String (YYYY-MM-DD hh:mm:ss) UTC,Instrument flags,Ambient pressure (hPa),Sample flow (lpm),Bypass flow (lpm),Sample temperature (°C),Ambient temperature (°C),ASC tube jacket temperature (°C),LED temperature (°C),Box temperature (°C),Sample RH (%),Span deviation,Mass concentration (μg/m³),Mass concentration (μg/m³),Mass concentration (μg/m³)
DateTimeUTC,F1_M11,P_M11,Q1_M11,Q2_M11,T1_M11,T2_M11,T3_M11,T4_M11,T5_M11,U1_M11,ZSPAN_M11,X0_M11,X2_M11,X1_M11
2023-05-22 23:00:00,,0829.2,5.00,0.00,29.5,27.9,00.0,37.8,31.2,19.8,0003.7,0047.85,0035.03,0033.48
2023-05-22 23:01:00,,0829.2,5.00,0.00,29.5,28.1,00.0,37.8,31.3,20.1,0003.7,0048.08,0035.19,0033.64
2023-05-22 23:02:00,,0829.3,4.98,0.00,29.5,28.2,00.0,37.8,31.3,19.7,0003.8,0048.25,0035.31,0033.76
2023-05-22 23:03:00,,0829.3,5.00,0.00,29.6,28.3,00.0,37.8,31.3,20.3,0003.8,0048.44,0035.41,0033.86
2023-05-22 23:04:00,,0829.3,5.00,0.00,29.6,27.9,00.0,37.8,31.3,20.0,0003.7,0049.23,0035.50,0033.94
2023-05-22 23:05:00,,0829.3,5.00,0.00,29.6,26.3,00.0,37.7,31.1,20.1,0003.6,0049.59,0035.64,0034.02
2023-05-22 23:06:00,,0829.3,5.01,0.00,29.5,25.8,00.0,37.7,31.0,19.9,0003.6,0049.05,0035.62,0034.05
2023-05-22 23:07:00,,0829.4,5.01,0.00,29.5,26.0,00.0,37.7,30.9,20.4,0003.5,0048.50,0035.65,0034.10
2023-05-22 23:08:00,,0829.3,4.99,0.00,29.4,26.3,00.0,37.7,30.9,20.9,0003.5,0048.42,0035.65,0034.12
2023-05-22 23:09:00,,0829.3,4.99,0.00,29.4,26.6,00.0,37.7,31.0,21.4,0003.4,0048.71,0035.73,0034.15
2023-05-22 23:10:00,,0829.4,5.00,0.00,29.4,26.9,00.0,37.7,31.0,21.0,0003.4,0049.40,0035.80,0034.16
2023-05-22 23:11:00,,0829.4,5.01,0.00,29.4,27.2,00.0,37.7,31.1,20.6,0003.4,0050.83,0035.87,0034.19
2023-05-22 23:12:00,,0829.3,4.99,0.00,29.4,27.4,00.0,37.7,31.1,20.3,0003.3,0050.88,0035.86,0034.20
2023-05-22 23:13:00,,0829.3,4.99,0.00,29.4,27.7,00.0,37.7,31.2,20.5,0003.3,0051.38,0035.78,0034.14
2023-05-22 23:14:00,,0829.3,5.00,0.00,29.5,27.8,00.0,37.8,31.2,20.1,0003.3,0051.35,0035.73,0034.13
2023-05-22 23:15:00,,0829.3,5.00,0.00,29.5,28.0,00.0,37.8,31.2,20.2,0003.4,0050.88,0035.71,0034.12
2023-05-22 23:16:00,,0829.3,5.00,0.00,29.5,28.1,00.0,37.8,31.3,20.5,0003.5,0051.47,0035.66,0034.13
2023-05-22 23:17:00,,0829.3,5.01,0.00,29.6,28.2,00.0,37.8,31.3,19.3,0003.5,0051.34,0035.70,0034.17
2023-05-22 23:18:00,,0829.4,5.00,0.00,29.6,28.3,00.0,37.8,31.4,19.9,0003.5,0051.37,0035.79,0034.22
2023-05-22 23:19:00,,0829.3,5.00,0.00,29.6,27.9,00.0,37.8,31.3,20.0,0003.5,0051.41,0035.83,0034.26
2023-05-22 23:20:00,,0829.3,4.99,0.00,29.6,26.3,00.0,37.8,31.1,20.0,0003.5,0051.46,0035.95,0034.38
2023-05-22 23:21:00,,0829.2,5.01,0.00,29.5,25.9,00.0,37.7,31.0,20.0,0003.5,0052.00,0036.10,0034.49
2023-05-22 23:22:00,,0829.2,5.01,0.00,29.5,26.1,00.0,37.7,30.9,20.1,0003.6,0050.84,0036.18,0034.60
2023-05-22 23:23:00,,0829.2,5.00,0.00,29.4,26.4,00.0,37.7,30.9,20.4,0003.6,0050.72,0036.30,0034.70
2023-05-22 23:24:00,,0829.2,5.00,0.00,29.4,26.7,00.0,37.7,31.0,20.4,0003.5,0050.43,0036.44,0034.82
2023-05-22 23:25:00,,0829.2,5.00,0.00,29.4,27.0,00.0,37.7,31.0,20.4,0003.4,0050.70,0036.62,0034.96
2023-05-22 23:26:00,,0829.2,5.00,0.00,29.4,27.3,00.0,37.7,31.1,20.5,0003.3,0050.65,0036.87,0035.16
2023-05-22 23:27:00,,0829.2,5.00,0.00,29.4,27.5,00.0,37.7,31.1,20.6,0003.3,0050.51,0036.98,0035.24
2023-05-22 23:28:00,,0829.2,5.00,0.00,29.5,27.7,00.0,37.8,31.2,20.9,0003.3,0051.49,0037.08,0035.29
2023-05-22 23:29:00,,0829.2,5.01,0.00,29.5,27.9,00.0,37.8,31.2,20.2,0003.3,0052.25,0037.19,0035.38
2023-05-22 23:30:00,,0829.2,4.99,0.00,29.5,28.0,00.0,37.8,31.3,20.1,0003.3,0053.58,0037.29,0035.51
2023-05-22 23:31:00,,0829.2,5.00,0.00,29.5,28.1,00.0,37.8,31.3,20.2,0003.3,0053.92,0037.34,0035.55
2023-05-22 23:32:00,,0829.2,5.00,0.00,29.6,28.2,00.0,37.8,31.3,20.8,0003.3,0053.27,0037.34,0035.61
2023-05-22 23:33:00,,0829.1,5.00,0.00,29.6,28.4,00.0,37.9,31.4,21.1,0003.3,0053.81,0037.37,0035.65
2023-05-22 23:34:00,,0829.1,5.00,0.00,29.6,27.8,00.0,37.8,31.3,21.1,0003.4,0054.49,0037.36,0035.67
2023-05-22 23:35:00,,0829.1,5.00,0.00,29.6,25.9,00.0,37.8,31.0,20.9,0003.4,0054.39,0037.41,0035.71
2023-05-22 23:36:00,,0829.1,5.00,0.00,29.5,24.9,00.0,37.7,30.8,20.6,0003.5,0054.55,0037.45,0035.71
2023-05-22 23:37:00,,0829.1,5.01,0.00,29.4,25.1,00.0,37.6,30.7,19.9,0003.5,0054.57,0037.42,0035.69
2023-05-22 23:38:00,,0829.1,5.01,0.00,29.3,25.4,00.0,37.6,30.7,19.4,0003.6,0054.80,0037.58,0035.80
2023-05-22 23:39:00,,0829.1,5.00,0.00,29.3,25.8,00.0,37.6,30.7,19.9,0003.6,0054.48,0037.68,0035.88
2023-05-22 23:40:00,,0829.1,5.00,0.00,29.3,26.2,00.0,37.6,30.8,19.7,0003.6,0054.92,0037.70,0035.93
2023-05-22 23:41:00,,0829.1,5.00,0.00,29.3,26.6,00.0,37.6,30.9,19.7,0003.6,0053.97,0037.80,0036.02
2023-05-22 23:42:00,,0829.1,5.00,0.00,29.3,26.9,00.0,37.6,30.9,20.4,0003.6,0054.17,0037.91,0036.12
2023-05-22 23:43:00,,0829.1,5.00,0.00,29.3,27.2,00.0,37.6,30.9,20.5,0003.5,0054.39,0037.95,0036.17
2023-05-22 23:44:00,,0829.1,4.99,0.00,29.3,27.4,00.0,37.6,31.0,19.9,0003.5,0054.04,0037.95,0036.19
2023-05-22 23:45:00,,0829.1,4.99,0.00,29.3,27.6,00.0,37.6,31.0,20.1,0003.6,0053.45,0038.11,0036.27
2023-05-22 23:46:00,,0829.1,5.00,0.00,29.3,27.7,00.0,37.6,31.1,20.1,0003.6,0053.50,0038.20,0036.36
2023-05-22 23:47:00,,0829.1,5.00,0.00,29.4,27.9,00.0,37.7,31.1,20.8,0003.6,0053.33,0038.21,0036.41
2023-05-22 23:48:00,,0829.1,5.00,0.00,29.4,28.0,00.0,37.7,31.2,20.9,0003.6,0053.20,0038.22,0036.47
2023-05-22 23:49:00,,0829.1,5.01,0.00,29.4,28.1,00.0,37.7,31.2,20.1,0003.5,0052.74,0038.19,0036.47
2023-05-22 23:50:00,,0829.1,5.00,0.00,29.5,28.2,00.0,37.7,31.2,19.8,0003.4,0052.39,0038.22,0036.53
2023-05-22 23:51:00,,0829.1,5.00,0.00,29.5,28.3,00.0,37.7,31.3,19.8,0003.4,0051.72,0038.24,0036.54
2023-05-22 23:52:00,,0829.1,4.99,0.00,29.5,28.4,00.0,37.8,31.3,19.8,0003.4,0052.14,0038.19,0036.47
2023-05-22 23:53:00,,0829.1,5.00,0.00,29.6,28.4,00.0,37.8,31.3,19.4,0003.5,0051.58,0038.14,0036.42
2023-05-22 23:54:00,,0829.1,4.99,0.00,29.6,27.3,00.0,37.8,31.2,19.3,0003.5,0051.42,0038.17,0036.41
2023-05-22 23:55:00,,0829.1,5.00,0.00,29.5,25.9,00.0,37.7,31.0,19.6,0003.5,0051.62,0038.23,0036.44
2023-05-22 23:56:00,,0829.1,5.01,0.00,29.5,25.9,00.0,37.6,30.9,20.3,0003.4,0051.94,0038.17,0036.42
2023-05-22 23:57:00,,0829.1,5.01,0.00,29.4,26.1,00.0,37.7,30.9,20.2,0003.4,0052.27,0038.17,0036.41
2023-05-22 23:58:00,,0829.1,5.00,0.00,29.4,26.4,00.0,37.7,30.9,19.9,0003.5,0052.35,0038.20,0036.42
2023-05-22 23:59:00,,0829.1,5.00,0.00,29.4,26.7,00.0,37.7,31.0,19.8,0003.5,0052.60,0038.21,0036.39
